Orbital Elements at Epoch 2459000.5 (2020-May-31.0) TDB
Reference: JPL 27 (heliocentric ecliptic J2000)
Element | Value | Uncertainty (1-sigma) | Units |
e | .1550165625848533 | 3.5882e-08 | |
a | 2.324235192422107 | 1.0101e-08 | au |
q | 1.963940242254086 | 8.406e-08 | au |
i | 7.512681727494478 | 5.3303e-06 | deg |
node | 54.72953524461956 | 2.8773e-05 | deg |
peri | 269.8819467106804 | 3.6278e-05 | deg |
M | 262.4587222966903 | 2.4827e-05 | deg |
tp | 2459351.174733346012 (2021-May-16.67473335) | 9.0195e-05 | TDB |
period | 1294.251079922862 3.54 | 8.4371e-06 2.31e-08 | d yr |
n | .2781531385868777 | 1.8133e-09 | deg/d |
Q | 2.684530142590126 | 1.1667e-08 | au |
|
| | Orbit Determination Parameters
Additional Information
|